Weather History for Matagami, QC

Change the Weather History Date:

Thursday, February 7, 2013

  Actual Average Record
Temperature  
Mean Temperature -26 °F -  
Max Temperature -8 °F 15 °F 37 °F (2005)
Min Temperature -43 °F -6 °F -43 °F (2013)
Degree Days  
Heating Degree Days 90    
Moisture  
Dew Point -38 °F    
Average Humidity 67    
Maximum Humidity 83    
Minimum Humidity 40    
Precipitation  
Precipitation 0.00 in - - ()
Sea Level Pressure  
Sea Level Pressure 30.61 in    
Wind  
Wind Speed 2 mph ()    
Max Wind Speed 8 mph    
Max Gust Speed -    
Visibility 5.8 miles    
Events Fog    
Averages and records for this station are not official NWS values.
T = Trace of Precipitation, MM = Missing Value Source: Averaged Metar Reports

Daily Weather History Graph

Daily Weather History Graph

Search for Another Location

Airport:

Trip Planner

Search our weather history database for the weather conditions in past years. The results will help you decide how hot, cold, wet, or windy it might be!

Date:

Astronomy

Feb. 07, 2013 Rise Set
Actual Time 7:34 AM EST 5:17 PM EST
Civil Twilight 7:00 AM EST 5:50 PM EST
Nautical Twilight 6:22 AM EST 6:29 PM EST
Astronomical Twilight 5:45 AM EST 7:06 PM EST
Moon 5:21 AM EST (2/7) 2:30 PM EST (2/7)
Length of Visible Light 10h 50m
Length of Day
9h 42m
Waning Crescent, 9% of the Moon is Illuminated
Feb 7
Waning Crescent
Feb 10
New
Feb 17
First Quarter
Feb 25
Full
Mar 4
Last Quarter

Hourly Weather History & Observations

Time (EST) Temp. Windchill Dew Point Humidity Pressure Visibility Wind Dir Wind Speed Gust Speed Precip Events Conditions
12:00 AM -38.2 °F - -43.6 °F 74% 30.53 in 9.0 mi Calm Calm - N/A   Clear
1:00 AM -34 °F - -42 °F 46% 30.55 in - SSW 1.2 mph - -  
1:00 AM -40.0 °F - -45.4 °F 74% 30.55 in 9.0 mi SSW 2.3 mph - N/A   Clear
2:00 AM -40.0 °F - -45.4 °F 74% 30.57 in 9.0 mi South 2.3 mph - N/A   Clear
3:00 AM -40.0 °F - -47.2 °F 67% 30.58 in 9.0 mi South 2.3 mph - N/A   Clear
4:00 AM -38 °F - -47 °F 40% 30.58 in - Calm Calm - -  
4:00 AM -41.8 °F - -47.2 °F 74% 30.59 in 9.0 mi Calm Calm - N/A   Clear
5:00 AM -41.8 °F -55.6 °F -49.0 °F 67% 30.61 in 9.0 mi South 3.5 mph - N/A   Clear
6:00 AM -43.6 °F -57.7 °F -50.8 °F 67% 30.62 in 9.0 mi South 3.5 mph - N/A   Clear
6:43 AM -43.6 °F -57.7 °F -52.6 °F 60% 30.64 in 5.0 mi SSE 3.5 mph - N/A   Haze
6:48 AM -45.4 °F -59.7 °F -52.6 °F 66% 30.64 in 6.0 mi SSE 3.5 mph - N/A   Haze
6:59 AM -43.6 °F -57.7 °F -52.6 °F 60% 30.64 in 5.0 mi South 3.5 mph - N/A   Haze
7:00 AM -38 °F - -46 °F 43% 30.64 in - South 1.2 mph - -  
7:00 AM -43.6 °F -57.7 °F -52.6 °F 60% 30.64 in 3.0 mi South 3.5 mph - N/A   Clear
7:03 AM -43.6 °F -57.7 °F -52.6 °F 60% 30.64 in 2.0 mi SSE 3.5 mph - N/A   Clear
7:12 AM -43.6 °F - -52.6 °F 60% 30.64 in 3.0 mi SSE 2.3 mph - N/A   Clear
7:49 AM -43.6 °F - -50.8 °F 67% 30.65 in 2.2 mi Calm Calm - N/A   Clear
8:00 AM -43.6 °F - -50.8 °F 67% 30.66 in 0.8 mi Calm Calm - N/A   Clear
8:31 AM -41.8 °F - -49.0 °F 67% 30.66 in 0.6 mi Variable 2.3 mph - N/A   Partly Cloudy
8:33 AM -40.0 °F - -47.2 °F 67% 30.66 in 0.5 mi Variable 2.3 mph - N/A Fog Light Freezing Fog
8:40 AM -40.0 °F - -47.2 °F 67% 30.66 in 0.2 mi SE 2.3 mph - N/A Fog Light Freezing Fog
9:00 AM -36.4 °F - -43.6 °F 67% 30.67 in 0.2 mi ESE 2.3 mph - N/A Fog Light Freezing Fog
9:49 AM -29.2 °F - -34.6 °F 75% 30.66 in 0.5 mi ESE 2.3 mph - N/A   Haze
10:00 AM -30 °F - -38 °F 46% 30.66 in - Calm Calm - -  
10:00 AM -27.4 °F -39.2 °F -32.8 °F 75% 30.66 in 1.0 mi SE 3.5 mph - N/A   Haze
10:05 AM -25.6 °F -37.1 °F -32.8 °F 69% 30.66 in 3.0 mi SE 3.5 mph - N/A   Haze
10:06 AM -25.6 °F -37.1 °F -31.0 °F 76% 30.66 in 3.0 mi SE 3.5 mph - N/A   Haze
10:10 AM -25.6 °F - -31.0 °F 76% 30.66 in 6.0 mi SE 2.3 mph - N/A   Haze
11:00 AM -18.4 °F -36.6 °F -25.6 °F 70% 30.66 in 9.0 mi SSE 8.1 mph - N/A   Clear
12:00 PM -16.6 °F -31.3 °F -23.8 °F 70% 30.64 in 9.0 mi SE 5.8 mph - N/A   Clear
1:00 PM -13.0 °F -28.6 °F -22.0 °F 64% 30.63 in 9.0 mi SE 6.9 mph - N/A   Clear
2:00 PM -11.2 °F -26.4 °F -20.2 °F 64% 30.61 in 9.0 mi SE 6.9 mph - N/A   Clear
3:00 PM -9.4 °F -24.3 °F -18.4 °F 65% 30.60 in 9.0 mi SE 6.9 mph - N/A   Clear
4:00 PM -9 °F - -19 °F 44% 30.58 in - SE 2.3 mph - -  
4:00 PM -9.4 °F -24.3 °F -18.4 °F 65% 30.59 in 9.0 mi SE 6.9 mph - N/A   Clear
5:00 PM -9.4 °F -22.7 °F -18.4 °F 65% 30.58 in 9.0 mi SE 5.8 mph - N/A   Clear
6:00 PM -16.6 °F - -22.0 °F 76% 30.58 in 9.0 mi ESE 2.3 mph - N/A   Clear
7:00 PM -13 °F - -19 °F 59% 30.57 in - SE 1.2 mph - -  
7:00 PM -22.0 °F - -25.6 °F 83% 30.58 in 9.0 mi SSE 2.3 mph - N/A   Clear
8:00 PM -23.8 °F - -27.4 °F 83% 30.59 in 9.0 mi Calm Calm - N/A   Clear
9:00 PM -31.0 °F - -36.4 °F 75% 30.58 in 9.0 mi Calm Calm - N/A   Clear
9:46 PM -27.4 °F - -32.8 °F 75% 30.57 in 5.0 mi Calm Calm - N/A   Haze
9:57 PM -29.2 °F - -34.6 °F 75% 30.58 in 6.0 mi Calm Calm - N/A   Haze
10:00 PM -26 °F - -33 °F 52% 30.55 in - East 1.2 mph - -  
10:00 PM -29.2 °F - -34.6 °F 75% 30.57 in 9.0 mi Calm Calm - N/A   Clear
10:31 PM -31.0 °F - -36.4 °F 75% 30.57 in 4.0 mi ESE 2.3 mph - N/A   Haze
10:33 PM -31.0 °F - -38.2 °F 68% 30.57 in 2.5 mi ESE 2.3 mph - N/A   Haze
10:42 PM -31.0 °F - -36.4 °F 75% 30.57 in 3.0 mi Calm Calm - N/A   Clear
10:47 PM -31.0 °F - -36.4 °F 75% 30.56 in 6.0 mi Calm Calm - N/A   Haze
11:00 PM -29.2 °F - -34.6 °F 75% 30.56 in 9.0 mi Calm Calm - N/A   Clear